Wind_Speed
47 46 46 46 46 45 45 45 44 44 43 42 41 40 38 37 37 36 35 34 33 33 32 31 30 29 29 28 28 28 29 30 29 28 29 29 29 29
47 47 47 46 46 45 45 45 44 43 41 40 39 37 36 36 35 34 33 33 32 31 31 29 29 28 28 27 27 26 27 27 28 27 27 26 27 27
48 47 46 46 45 45 45 44 42 41 39 38 37 35 34 34 33 32 32 31 31 30 29 29 28 28 27 27 27 27 27 27 27 26 25 26 26 27
47 47 46 45 45 44 43 41 40 38 37 35 34 33 33 32 31 31 31 30 30 29 29 29 28 28 27 27 27 26 26 27 27 26 26 26 26 28
45 45 45 44 43 42 40 38 37 36 34 33 32 32 31 31 31 30 30 29 29 29 29 28 28 28 27 27 27 27 27 27 27 27 27 27 27 28
44 43 43 42 41 39 37 35 34 33 32 31 31 30 30 30 30 29 29 29 29 29 29 29 29 29 29 29 29 29 29 29 29 29 29 29 29 30
42 41 40 39 38 36 34 33 32 31 31 30 30 30 30 30 30 29 29 30 30 30 30 30 30 31 31 31 31 31 31 31 31 31 32 32 32 32
39 38 37 36 35 34 33 31 30 30 29 29 29 30 30 30 29 30 30 31 31 32 32 32 32 32 33 33 33 33 33 34 34 35 35 35 35 36
36 35 35 34 32 31 30 30 30 29 29 29 30 30 30 30 30 31 32 32 33 33 33 33 34 34 34 35 35 36 36 36 37 37 38 38 38 39
33 32 32 31 30 29 29 30 30 29 30 30 30 30 31 31 32 33 33 34 34 35 35 35 35 36 36 37 38 38 38 38 39 39 39 40 40 40
31 30 29 29 29 30 30 30 30 30 31 31 31 32 33 33 34 35 35 36 36 36 37 37 37 38 38 39 39 40 40 41 41 41 42 42 42 42
29 29 29 29 30 30 30 30 31 31 32 32 33 33 34 35 36 37 37 38 38 38 38 38 39 39 39 40 41 42 42 43 43 43 44 44 44 45
28 29 29 29 30 30 30 31 31 32 33 33 34 35 36 37 38 38 39 39 39 40 40 40 41 41 41 42 43 44 44 44 44 44 44 45 45 46
28 29 29 29 30 31 31 32 32 33 34 35 36 37 38 38 39 40 40 40 41 41 42 42 42 43 43 44 44 45 46 46 45 44 44 44 45 46
28 29 29 30 31 32 32 33 34 35 36 37 38 39 39 40 40 40 41 42 43 43 44 44 44 45 45 45 45 46 47 47 46 45 45 45 45 46
28 29 30 32 32 33 34 35 36 37 37 38 39 40 41 41 41 42 42 43 44 44 44 45 45 45 46 46 46 47 47 47 47 47 46 46 46 46
29 31 32 33 34 35 36 37 37 38 39 40 40 41 41 42 42 43 43 43 44 44 45 45 46 46 46 47 47 47 47 47 47 47 46 46 46 47
32 33 34 35 36 36 37 38 39 39 40 41 41 42 42 42 42 43 43 43 44 45 45 46 46 46 46 46 47 47 47 47 47 47 46 45 45 47
33 34 35 36 36 37 38 38 39 40 41 41 42 42 42 42 43 43 43 44 45 46 47 47 47 46 46 46 46 48 48 48 47 47 47 46 45 45
34 35 36 36 37 38 39 39 40 41 41 41 41 41 42 42 43 43 44 45 46 46 47 48 47 47 47 46 45 47 49 48 48 47 47 46 45 44
35 36 36 37 38 39 40 40 41 41 41 41 41 42 42 42 43 44 45 46 46 47 47 48 48 48 48 47 46 46 49 50 49 47 46 46 44 42
36 37 38 38 39 39 40 40 40 40 40 41 41 42 42 43 44 45 46 47 47 48 48 49 49 49 49 48 47 47 48 50 50 48 47 47 44 41
36 37 37 38 39 39 40 39 39 40 40 41 41 42 43 44 45 46 47 48 48 49 49 49 49 50 50 50 49 49 49 49 49 47 47 47 45 42
Wind_Direction
284 285 287 288 289 291 292 293 294 294 294 295 295 296 296 297 298 299 299 299 299 299 298 297 297 296 294 292 289 288 285 282 283 283 279 275 271 267
283 284 286 287 288 290 290 291 291 292 292 293 294 294 295 296 298 299 299 300 299 299 298 297 297 298 295 293 292 288 287 286 284 284 282 276 271 268
283 284 285 286 287 288 288 289 289 290 291 292 293 294 295 297 297 299 300 300 300 299 298 297 297 297 296 294 293 290 289 287 286 284 283 278 273 270
282 283 283 284 285 286 287 287 287 288 289 291 292 293 294 295 297 298 299 299 299 299 298 297 296 296 296 294 293 292 290 287 286 284 282 279 276 273
280 281 281 282 283 284 284 285 286 287 288 289 290 292 293 294 296 297 298 298 298 298 298 297 296 295 295 294 293 292 289 287 286 285 283 280 277 276
278 279 280 281 282 281 282 283 284 285 286 288 289 290 292 294 295 296 297 298 298 297 297 296 295 295 294 294 293 291 289 287 286 285 284 281 279 278
278 278 279 279 279 280 281 281 282 283 285 286 288 290 291 293 294 296 297 298 297 296 296 295 295 294 294 293 292 291 289 287 285 284 283 282 280 278
276 276 276 276 277 278 279 279 281 282 284 286 287 289 291 293 295 296 297 297 297 296 296 295 294 294 293 292 291 290 289 287 285 284 282 281 279 278
274 274 275 275 276 276 277 279 281 282 283 285 287 290 291 293 294 295 296 296 296 295 295 295 294 294 293 291 290 289 288 287 286 284 283 281 280 278
273 273 273 273 274 275 276 279 280 282 283 285 288 290 291 293 294 295 295 296 295 295 295 294 294 293 293 292 291 290 288 287 286 285 283 282 281 279
270 271 271 272 273 274 276 279 281 283 284 286 288 290 291 293 294 294 294 295 295 295 294 294 294 294 293 292 291 290 289 288 286 285 283 282 281 280
269 269 271 272 274 276 278 280 282 284 285 287 289 290 292 293 293 294 294 294 294 294 294 294 294 294 293 292 292 291 290 289 288 286 284 282 281 279
269 270 271 273 275 277 279 282 284 285 286 288 289 291 293 293 294 294 294 294 294 294 294 294 294 294 294 293 293 292 292 290 289 288 286 284 282 280
269 270 273 275 277 279 281 283 285 286 287 288 290 291 293 294 294 294 294 295 294 295 295 295 295 294 294 294 293 293 292 291 290 289 288 286 284 282
272 273 275 277 279 281 283 285 286 287 288 289 291 292 293 293 294 294 294 295 295 295 295 295 295 295 295 294 294 293 292 292 290 289 289 288 287 284
275 276 278 280 281 283 285 286 287 289 290 291 292 293 294 294 294 295 295 296 296 296 296 296 296 297 296 295 295 294 293 291 290 290 290 289 288 286
279 280 281 282 284 285 287 288 289 290 292 293 293 294 294 294 295 296 296 296 297 297 297 297 298 298 297 297 296 294 293 292 291 291 291 290 289 288
281 282 283 285 286 287 288 289 290 291 292 293 294 295 295 295 296 296 296 297 297 297 297 298 298 298 298 298 297 295 294 293 293 292 291 291 290 289
283 284 285 286 287 288 289 290 291 292 293 294 295 295 296 296 296 297 297 298 298 298 298 298 298 299 299 298 297 296 295 295 294 294 292 291 291 289
284 285 286 287 288 289 290 291 291 292 294 295 295 295 296 296 297 297 298 299 299 300 300 299 300 300 299 299 298 297 297 296 296 295 294 293 292 289
284 286 287 288 289 290 291 291 292 293 294 295 295 296 296 297 298 299 299 300 300 301 301 301 301 301 301 300 299 298 298 298 297 296 295 293 292 290
285 287 288 289 290 291 291 292 292 293 293 294 295 296 296 297 298 299 300 301 301 302 302 302 302 302 301 301 300 299 298 298 298 297 295 294 292 289
285 287 288 290 291 291 292 292 292 293 294 294 295 296 297 298 299 300 301 301 301 302 302 302 302 302 302 302 302 301 299 298 297 297 296 295 293 291
Height
5754 5753 5751 5749 5747 5745 5742 5740 5738 5735 5732 5729 5726 5722 5719 5716 5714 5711 5708 5705 5702 5699 5697 5694 5692 5689 5687 5684 5682 5680 5679 5678 5677 5676 5675 5675 5675 5675
5743 5742 5740 5738 5736 5734 5731 5729 5727 5725 5722 5718 5716 5713 5710 5707 5705 5702 5699 5696 5694 5691 5688 5686 5684 5681 5679 5677 5675 5673 5671 5670 5669 5668 5667 5666 5667 5667
5732 5730 5729 5727 5725 5723 5721 5718 5716 5714 5712 5709 5706 5704 5701 5699 5696 5694 5691 5688 5685 5683 5680 5678 5676 5673 5671 5669 5667 5665 5664 5663 5662 5661 5660 5659 5659 5660
5720 5719 5717 5716 5714 5712 5710 5708 5706 5704 5702 5700 5697 5695 5693 5690 5688 5685 5683 5680 5677 5675 5673 5670 5668 5666 5664 5661 5659 5658 5656 5655 5654 5653 5653 5652 5652 5652
5708 5707 5706 5704 5702 5701 5699 5697 5696 5694 5692 5690 5688 5686 5684 5682 5680 5677 5675 5672 5670 5667 5665 5663 5660 5658 5656 5654 5652 5650 5649 5648 5647 5646 5645 5644 5644 5643
5696 5695 5694 5693 5692 5690 5689 5687 5686 5685 5683 5682 5680 5678 5676 5674 5671 5669 5667 5664 5662 5659 5657 5655 5652 5650 5648 5646 5644 5642 5641 5639 5638 5637 5636 5636 5635 5634
5685 5684 5683 5682 5681 5680 5679 5678 5677 5676 5674 5673 5671 5669 5667 5665 5663 5661 5658 5656 5653 5651 5649 5646 5644 5642 5640 5637 5635 5634 5632 5630 5629 5628 5627 5626 5625 5625
5674 5673 5673 5672 5671 5671 5670 5669 5668 5667 5666 5664 5663 5661 5659 5656 5654 5652 5650 5647 5645 5643 5640 5638 5635 5633 5630 5628 5626 5624 5622 5620 5619 5617 5616 5615 5614 5614
5664 5663 5663 5663 5662 5662 5661 5660 5659 5658 5657 5656 5654 5652 5650 5648 5646 5643 5641 5638 5636 5633 5630 5628 5626 5623 5620 5618 5616 5614 5612 5610 5608 5606 5604 5603 5602 5601
5654 5654 5654 5653 5653 5653 5652 5651 5651 5649 5648 5647 5645 5643 5641 5639 5636 5634 5631 5629 5626 5623 5621 5618 5615 5613 5610 5607 5604 5602 5600 5598 5596 5594 5592 5590 5589 5587
5645 5645 5645 5645 5645 5644 5644 5643 5642 5640 5639 5637 5635 5633 5631 5629 5627 5624 5622 5619 5616 5613 5610 5607 5604 5602 5599 5596 5593 5590 5587 5585 5583 5581 5579 5577 5575 5573
5636 5636 5636 5636 5636 5636 5635 5634 5633 5631 5630 5628 5626 5624 5621 5619 5616 5614 5611 5608 5605 5602 5599 5596 5593 5590 5587 5584 5580 5577 5574 5571 5569 5566 5564 5562 5560 5558
5628 5628 5628 5628 5627 5627 5626 5625 5623 5622 5620 5618 5616 5613 5611 5608 5605 5603 5600 5597 5594 5591 5587 5584 5581 5577 5574 5571 5567 5564 5560 5557 5554 5552 5549 5546 5544 5542
5620 5620 5619 5619 5618 5618 5616 5615 5614 5612 5610 5608 5605 5603 5600 5597 5594 5591 5588 5585 5582 5578 5575 5571 5568 5565 5561 5557 5553 5550 5546 5543 5540 5537 5534 5531 5528 5526
5611 5611 5611 5610 5609 5608 5607 5605 5604 5602 5599 5597 5595 5592 5589 5586 5583 5579 5576 5573 5569 5566 5562 5558 5555 5551 5547 5543 5539 5535 5531 5527 5524 5522 5519 5516 5512 5509
5603 5602 5602 5601 5600 5598 5597 5595 5593 5591 5588 5586 5583 5580 5577 5574 5571 5567 5564 5560 5556 5552 5549 5545 5541 5537 5533 5529 5524 5519 5515 5512 5509 5506 5504 5500 5496 5493
5594 5593 5592 5591 5590 5588 5586 5584 5582 5580 5577 5574 5571 5568 5565 5562 5558 5555 5552 5548 5544 5539 5535 5531 5527 5523 5519 5514 5509 5504 5500 5496 5493 5490 5488 5484 5480 5476
5585 5584 5583 5581 5580 5578 5576 5573 5571 5568 5566 5563 5559 5556 5553 5549 5546 5542 5539 5535 5531 5526 5522 5518 5514 5509 5505 5499 5494 5489 5485 5481 5478 5474 5471 5469 5465 5459
5575 5574 5573 5571 5569 5567 5565 5562 5560 5557 5554 5551 5547 5544 5541 5537 5533 5529 5526 5522 5517 5513 5508 5503 5499 5495 5491 5486 5480 5473 5469 5465 5462 5458 5455 5452 5450 5445
5565 5564 5562 5560 5558 5556 5553 5551 5548 5545 5542 5539 5535 5532 5528 5524 5520 5517 5512 5508 5504 5499 5494 5488 5484 5480 5476 5472 5467 5459 5453 5450 5446 5443 5438 5435 5433 5429
5555 5553 5551 5549 5547 5544 5542 5539 5536 5533 5530 5526 5523 5519 5516 5512 5508 5504 5499 5494 5490 5485 5480 5474 5469 5465 5460 5456 5453 5446 5438 5433 5430 5426 5422 5419 5416 5413
5544 5542 5540 5537 5535 5532 5529 5526 5524 5520 5517 5514 5511 5507 5503 5499 5495 5490 5485 5481 5475 5470 5465 5460 5454 5449 5444 5440 5436 5432 5425 5418 5413 5409 5405 5402 5399 5398
5533 5531 5528 5526 5523 5520 5517 5514 5512 5508 5505 5502 5498 5494 5490 5486 5481 5477 5472 5466 5461 5456 5451 5446 5440 5434 5429 5424 5420 5415 5410 5403 5398 5394 5389 5383 5381 5380